TimePDT,TemperatureF,Dew PointF,Humidity,Sea Level PressureIn,VisibilityMPH,Wind Direction,Wind SpeedMPH,Gust SpeedMPH,PrecipitationIn,Events,Conditions,WindDirDegrees,DateUTC
1:53 AM,60.1,45.0,57,29.89,10.0,SSE,4.6,-,N/A,,Clear,150,2012-10-12 08:53:00
2:53 AM,60.1,45.0,57,29.90,10.0,NE,3.5,-,N/A,,Clear,40,2012-10-12 09:53:00
3:53 AM,59.0,45.0,60,29.91,10.0,Calm,Calm,-,N/A,,Clear,0,2012-10-12 10:53:00
4:53 AM,57.9,46.0,65,29.94,10.0,Calm,Calm,-,N/A,,Clear,0,2012-10-12 11:53:00
5:53 AM,57.9,45.0,62,29.96,10.0,North,3.5,-,N/A,,Clear,350,2012-10-12 12:53:00
7:53 AM,62.1,45.0,53,30.00,10.0,Calm,Calm,-,N/A,,Scattered Clouds,0,2012-10-12 14:53:00
8:53 AM,64.0,46.0,52,30.02,10.0,SSE,3.5,-,N/A,,Scattered Clouds,160,2012-10-12 15:53:00
9:53 AM,69.1,42.1,38,30.03,10.0,Calm,Calm,-,N/A,,Partly Cloudy,0,2012-10-12 16:53:00
10:53 AM,71.1,41.0,34,30.03,10.0,South,6.9,-,N/A,,Partly Cloudy,170,2012-10-12 17:53:00
12:53 PM,75.9,39.9,27,30.03,10.0,East,8.1,-,N/A,,Scattered Clouds,100,2012-10-12 19:53:00
1:53 PM,77.0,41.0,28,30.01,10.0,WNW,6.9,-,N/A,,Scattered Clouds,290,2012-10-12 20:53:00
3:53 PM,77.0,41.0,28,30.00,10.0,NNW,13.8,26.5,N/A,,Clear,340,2012-10-12 22:53:00
4:53 PM,75.9,42.1,30,30.01,10.0,NW,15.0,24.2,N/A,,Scattered Clouds,310,2012-10-12 23:53:00
5:53 PM,73.0,44.1,35,30.02,10.0,NNW,20.7,25.3,N/A,,Clear,330,2012-10-13 00:53:00
6:53 PM,72.0,45.0,38,30.03,10.0,NW,13.8,20.7,N/A,,Clear,320,2012-10-13 01:53:00
7:53 PM,71.1,45.0,39,30.04,10.0,NW,13.8,-,N/A,,Clear,320,2012-10-13 02:53:00
8:53 PM,70.0,46.0,42,30.05,10.0,NW,11.5,-,N/A,,Clear,320,2012-10-13 03:53:00
9:53 PM,69.1,46.0,44,30.06,10.0,West,4.6,-,N/A,,Clear,280,2012-10-13 04:53:00
10:53 PM,68.0,48.0,49,30.08,10.0,NW,12.7,-,N/A,,Clear,320,2012-10-13 05:53:00
11:53 PM,66.9,48.9,52,30.08,10.0,West,5.8,-,N/A,,Clear,280,2012-10-13 06:53:00